TimeMST,TemperatureF,Dew PointF,Humidity,Sea Level PressureIn,VisibilityMPH,Wind Direction,Wind SpeedMPH,Gust SpeedMPH,PrecipitationIn,Events,Conditions,WindDirDegrees,DateUTC
12:15 AM,-5.8,-16.6,60,30.39,7.0,Calm,Calm,-,N/A,,Clear,0,2014-01-22 07:15:00
12:35 AM,-7.6,-18.4,59,30.38,10.0,Calm,Calm,-,N/A,,Clear,0,2014-01-22 07:35:00
12:55 AM,-7.6,-7.6,100,30.38,10.0,Calm,Calm,-,N/A,,Clear,0,2014-01-22 07:55:00
1:15 AM,-7.6,-16.6,65,30.37,10.0,Calm,Calm,-,N/A,,Clear,0,2014-01-22 08:15:00
1:35 AM,-9.4,-16.6,71,30.37,10.0,Calm,Calm,-,N/A,,Clear,0,2014-01-22 08:35:00
1:55 AM,-9.4,-9.4,100,30.37,10.0,Calm,Calm,-,N/A,,Clear,0,2014-01-22 08:55:00
2:15 AM,-7.6,-20.2,54,30.37,10.0,Calm,Calm,-,N/A,,Clear,0,2014-01-22 09:15:00
2:35 AM,-9.4,-9.4,100,30.36,10.0,Calm,Calm,-,N/A,,Clear,0,2014-01-22 09:35:00
2:55 AM,-9.4,-18.4,65,30.36,10.0,Calm,Calm,-,N/A,,Clear,0,2014-01-22 09:55:00
3:15 AM,-11.2,-9999,N/A,30.35,10.0,Calm,Calm,-,N/A,,Clear,0,2014-01-22 10:15:00
3:35 AM,-11.2,-9999,N/A,30.34,10.0,Calm,Calm,-,N/A,,Clear,0,2014-01-22 10:35:00
3:55 AM,-11.2,-9999,N/A,30.33,10.0,Calm,Calm,-,N/A,,Clear,0,2014-01-22 10:55:00
4:15 AM,-11.2,-9999,N/A,30.33,10.0,Calm,Calm,-,N/A,,Clear,0,2014-01-22 11:15:00
4:35 AM,-13.0,-9999,N/A,30.32,10.0,Calm,Calm,-,N/A,,Clear,0,2014-01-22 11:35:00
4:55 AM,-13.0,-9999,N/A,30.32,10.0,Calm,Calm,-,N/A,,Clear,0,2014-01-22 11:55:00
5:15 AM,-14.8,-14.8,100,30.33,10.0,Calm,Calm,-,N/A,,Clear,0,2014-01-22 12:15:00
5:35 AM,-14.8,-9999,N/A,30.32,10.0,Calm,Calm,-,N/A,,Clear,0,2014-01-22 12:35:00
5:55 AM,-14.8,-9999,N/A,30.32,10.0,Calm,Calm,-,N/A,,Clear,0,2014-01-22 12:55:00
6:15 AM,-14.8,-9999,N/A,30.31,10.0,Calm,Calm,-,N/A,,Clear,0,2014-01-22 13:15:00
6:35 AM,-14.8,-9999,N/A,30.31,10.0,Calm,Calm,-,N/A,,Clear,0,2014-01-22 13:35:00
6:55 AM,-16.6,-9999,N/A,30.31,10.0,Calm,Calm,-,N/A,,Clear,0,2014-01-22 13:55:00
7:15 AM,-14.8,-9999,N/A,30.30,10.0,Calm,Calm,-,N/A,,Clear,0,2014-01-22 14:15:00
7:35 AM,-14.8,-29.2,48,30.30,10.0,North,3.5,-,N/A,,Clear,360,2014-01-22 14:35:00
7:55 AM,-14.8,-27.4,53,30.30,10.0,Calm,Calm,-,N/A,,Clear,0,2014-01-22 14:55:00
8:15 AM,-16.6,-9999,N/A,30.30,10.0,Calm,Calm,-,N/A,,Clear,0,2014-01-22 15:15:00
8:35 AM,-14.8,-29.2,48,30.30,10.0,Calm,Calm,-,N/A,,Clear,0,2014-01-22 15:35:00
8:55 AM,-11.2,-22.0,59,30.30,9.0,Calm,Calm,-,N/A,,Clear,0,2014-01-22 15:55:00
9:15 AM,-9.4,-22.0,54,30.29,10.0,Calm,Calm,-,N/A,,Clear,0,2014-01-22 16:15:00
9:35 AM,-7.6,-18.4,59,30.29,10.0,Calm,Calm,-,N/A,,Clear,0,2014-01-22 16:35:00
9:55 AM,-9.4,-23.8,49,30.28,10.0,Calm,Calm,-,N/A,,Clear,0,2014-01-22 16:55:00
10:15 AM,-7.6,-14.8,71,30.27,10.0,SSE,3.5,-,N/A,,Clear,150,2014-01-22 17:15:00
10:35 AM,-5.8,-9999,N/A,30.25,10.0,Calm,Calm,-,N/A,,Clear,0,2014-01-22 17:35:00
10:55 AM,-2.2,-25.6,32,30.24,10.0,Calm,Calm,-,N/A,,Clear,0,2014-01-22 17:55:00
11:15 AM,-0.4,-25.6,30,30.23,10.0,Calm,Calm,-,N/A,,Clear,0,2014-01-22 18:15:00
11:35 AM,1.4,-20.2,36,30.21,10.0,Calm,Calm,-,N/A,,Clear,0,2014-01-22 18:35:00
11:55 AM,5.0,-14.8,40,30.18,10.0,Calm,Calm,-,N/A,,Clear,0,2014-01-22 18:55:00
12:15 PM,6.8,-4.0,61,30.17,10.0,Calm,Calm,-,N/A,,Clear,0,2014-01-22 19:15:00
12:35 PM,6.8,-11.2,44,30.15,9.0,Calm,Calm,-,N/A,,Clear,0,2014-01-22 19:35:00
12:55 PM,8.6,-11.2,40,30.14,10.0,SE,3.5,-,N/A,,Clear,140,2014-01-22 19:55:00
1:15 PM,8.6,-2.2,62,30.12,10.0,Calm,Calm,-,N/A,,Clear,0,2014-01-22 20:15:00
1:35 PM,10.4,-7.6,44,30.11,10.0,Calm,Calm,-,N/A,,Clear,0,2014-01-22 20:35:00
1:55 PM,12.2,-5.8,45,30.10,10.0,Calm,Calm,-,N/A,,Clear,0,2014-01-22 20:55:00
2:15 PM,12.2,-7.6,41,30.09,10.0,East,3.5,-,N/A,,Clear,100,2014-01-22 21:15:00
2:35 PM,12.2,-5.8,45,30.07,10.0,East,3.5,-,N/A,,Clear,100,2014-01-22 21:35:00
2:55 PM,14.0,8.6,79,30.07,10.0,East,4.6,-,N/A,,Clear,90,2014-01-22 21:55:00
3:15 PM,15.8,-7.6,35,30.06,10.0,ENE,5.8,-,N/A,,Clear,70,2014-01-22 22:15:00
3:35 PM,15.8,-2.2,45,30.06,10.0,North,8.1,-,N/A,,Clear,350,2014-01-22 22:35:00
3:55 PM,15.8,-2.2,45,30.05,10.0,North,8.1,-,N/A,,Clear,360,2014-01-22 22:55:00
4:15 PM,15.8,-0.4,49,30.05,10.0,North,6.9,-,N/A,,Clear,10,2014-01-22 23:15:00
4:35 PM,15.8,-0.4,49,30.05,10.0,North,4.6,-,N/A,,Clear,350,2014-01-22 23:35:00
4:55 PM,15.8,-0.4,49,30.06,10.0,NNE,3.5,-,N/A,,Clear,30,2014-01-22 23:55:00
5:15 PM,12.2,-2.2,53,30.06,10.0,Calm,Calm,-,N/A,,Clear,0,2014-01-23 00:15:00
5:35 PM,10.4,-5.8,48,30.06,10.0,South,3.5,-,N/A,,Clear,170,2014-01-23 00:35:00
5:55 PM,8.6,-9.4,44,30.06,10.0,Calm,Calm,-,N/A,,Clear,0,2014-01-23 00:55:00
6:15 PM,8.6,-11.2,40,30.05,10.0,NNW,4.6,-,N/A,,Clear,330,2014-01-23 01:15:00
6:35 PM,6.8,-14.8,37,30.06,10.0,North,4.6,-,N/A,,Clear,350,2014-01-23 01:35:00
6:55 PM,6.8,-16.6,34,30.05,10.0,North,4.6,-,N/A,,Clear,360,2014-01-23 01:55:00
7:15 PM,5.0,-4.0,66,30.06,10.0,North,3.5,-,N/A,,Clear,360,2014-01-23 02:15:00
7:35 PM,3.2,-16.6,39,30.06,10.0,North,3.5,-,N/A,,Clear,10,2014-01-23 02:35:00
7:55 PM,1.4,-16.6,43,30.06,10.0,Calm,Calm,-,N/A,,Clear,0,2014-01-23 02:55:00
8:15 PM,3.2,-16.6,39,30.06,10.0,Calm,Calm,-,N/A,,Clear,0,2014-01-23 03:15:00
8:35 PM,3.2,-16.6,39,30.06,10.0,Calm,Calm,-,N/A,,Clear,0,2014-01-23 03:35:00
8:55 PM,1.4,-20.2,36,30.07,10.0,ENE,3.5,-,N/A,,Clear,60,2014-01-23 03:55:00
9:15 PM,1.4,-18.4,39,30.07,10.0,Calm,Calm,-,N/A,,Clear,0,2014-01-23 04:15:00
9:35 PM,1.4,-14.8,47,30.07,10.0,ENE,4.6,-,N/A,,Clear,60,2014-01-23 04:35:00
9:55 PM,1.4,-7.6,66,30.07,10.0,NE,3.5,-,N/A,,Clear,50,2014-01-23 04:55:00
10:15 PM,1.4,-4.0,78,30.07,10.0,Calm,Calm,-,N/A,,Clear,0,2014-01-23 05:15:00
10:35 PM,1.4,-14.8,47,30.07,10.0,Calm,Calm,-,N/A,,Clear,0,2014-01-23 05:35:00
10:55 PM,3.2,-52.6,6,30.08,10.0,ENE,3.5,-,N/A,,Clear,70,2014-01-23 05:55:00